Вернуться в каталог

APRIZESAT 8

АктивенСвязьSSO
NORAD 39425·PAYLOAD·🇺🇸 United States

Запущен Nov 21, 2013 с Dombarovsky

Loading…

Ближайшие Пролёты (ближайшие 24 часа)

TLE

СвежийSource: Space-Track

Эпоха: Sep 14, 2026, 07:49 UTC

1 39425U 13066K   26257.32592225  .00000888  00000-0  10168-3 0  9994
2 39425  97.8293 203.5860 0045677 354.5808   5.4908 14.87793278692929

Отслеживайте APRIZESAT 8 в реальном времени с AllMySat

Download on the App Store